| time (UTC) | temp F | wind direction | speed MPH | gust MPH | rain 1hr in | rain 24hr in | rain mn in | humidity % | barometer mb |
| 20260509212636 | 52 | 175 | 5.0 | 6.0 | 0.00 | 0.35 | 0.35 | 96 | 1008.0 |
| 20260509212133 | 52 | 211 | 3.0 | 3.0 | 0.00 | 0.35 | 0.35 | 96 | 1007.9 |
| 20260509211629 | 51 | 209 | 6.0 | 8.0 | 0.00 | 0.35 | 0.35 | 97 | 1008.2 |
| 20260509211126 | 51 | 241 | 4.0 | 6.0 | 0.00 | 0.35 | 0.35 | 97 | 1008.3 |
| 20260509210623 | 51 | 253 | 3.0 | 3.0 | 0.00 | 0.35 | 0.35 | 97 | 1008.3 |
| 20260509210120 | 51 | 291 | 1.0 | 2.0 | 0.00 | 0.35 | 0.35 | 97 | 1008.3 |
| 20260509205614 | 51 | 238 | 4.0 | 7.0 | 0.00 | 0.35 | 0.35 | 97 | 1008.4 |
| 20260509205109 | 51 | 213 | 5.0 | 6.0 | 0.00 | 0.35 | 0.35 | 97 | 1008.4 |
| 20260509204606 | 51 | 246 | 2.0 | 3.0 | 0.00 | 0.35 | 0.35 | 97 | 1008.4 |
| 20260509204102 | 50 | 261 | 5.0 | 8.0 | 0.00 | 0.35 | 0.35 | 98 | 1008.4 |
| 20260509203558 | 50 | 167 | 4.0 | 6.0 | 0.00 | 0.35 | 0.35 | 98 | 1008.9 |
| 20260509203057 | 50 | 206 | 2.0 | 3.0 | 0.00 | 0.35 | 0.35 | 98 | 1008.6 |
| 20260509202556 | 50 | 204 | 5.0 | 7.0 | 0.07 | 0.35 | 0.35 | 98 | 1008.7 |
| 20260509202052 | 50 | 179 | 2.0 | 2.0 | 0.07 | 0.35 | 0.35 | 98 | 1008.5 |
| 20260509201547 | 50 | 172 | 5.0 | 8.0 | 0.07 | 0.35 | 0.35 | 98 | 1008.9 |
| 20260509201046 | 50 | 162 | 4.0 | 5.0 | 0.00 | 0.34 | 0.34 | 99 | 1008.7 |
| 20260509200545 | 50 | 244 | 1.0 | 1.0 | 0.00 | 0.34 | 0.34 | 99 | 1008.9 |
| 20260509200042 | 50 | 268 | 1.0 | 1.0 | 0.00 | 0.34 | 0.34 | 98 | 1008.9 |
| 20260509195538 | 50 | 164 | 4.0 | 6.0 | 0.00 | 0.34 | 0.34 | 98 | 1008.9 |
| 20260509195037 | 50 | 307 | 3.0 | 3.0 | 0.00 | 0.34 | 0.34 | 98 | 1008.9 |
| 20260509194532 | 50 | 150 | 3.0 | 3.0 | 0.00 | 0.34 | 0.34 | 98 | 1009.0 |
| 20260509194030 | 50 | 306 | 1.0 | 1.0 | 0.05 | 0.34 | 0.34 | 98 | 1008.8 |
| 20260509193530 | 50 | 166 | 5.0 | 6.0 | 0.05 | 0.34 | 0.34 | 98 | 1009.1 |
| 20260509193027 | 50 | 262 | 2.0 | 2.0 | 0.00 | 0.33 | 0.33 | 98 | 1009.1 |
| 20260509192524 | 50 | 150 | 3.0 | 5.0 | 0.07 | 0.33 | 0.33 | 98 | 1009.0 |
| 20260509192019 | 50 | 162 | 2.0 | 3.0 | 0.12 | 0.33 | 0.33 | 98 | 1009.1 |
| 20260509191514 | 50 | 228 | 2.0 | 2.0 | 0.12 | 0.32 | 0.32 | 97 | 1009.1 |
| 20260509191009 | 50 | 177 | 1.0 | 2.0 | 0.07 | 0.31 | 0.31 | 97 | 1009.3 |
| 20260509190507 | 50 | 275 | 1.0 | 1.0 | 0.00 | 0.30 | 0.30 | 97 | 1009.3 |
| 20260509190005 | 50 | 166 | 3.0 | 3.0 | 0.12 | 0.30 | 0.30 | 97 | 1009.4 |
| 20260509185501 | 50 | 197 | 2.0 | 3.0 | 0.12 | 0.30 | 0.30 | 97 | 1009.1 |
| 20260509184958 | 50 | 265 | 5.0 | 6.0 | 0.07 | 0.29 | 0.29 | 97 | 1009.5 |
| 20260509184457 | 50 | 179 | 4.0 | 6.0 | 0.00 | 0.28 | 0.28 | 97 | 1009.3 |
| 20260509183953 | 50 | 171 | 4.0 | 5.0 | 0.00 | 0.28 | 0.28 | 96 | 1009.3 |
| 20260509183453 | 50 | 145 | 3.0 | 3.0 | 0.05 | 0.28 | 0.28 | 96 | 1009.4 |
| 20260509182949 | 50 | 214 | 4.0 | 6.0 | 0.05 | 0.28 | 0.28 | 96 | 1009.4 |
| 20260509182445 | 50 | 189 | 3.0 | 3.0 | 0.00 | 0.27 | 0.27 | 96 | 1009.4 |
| 20260509181943 | 50 | 189 | 2.0 | 3.0 | 0.00 | 0.27 | 0.27 | 96 | 1009.5 |
| 20260509181441 | 50 | 261 | 3.0 | 3.0 | 0.00 | 0.27 | 0.27 | 96 | 1009.1 |
| 20260509180938 | 50 | 238 | 2.0 | 3.0 | 0.00 | 0.27 | 0.27 | 95 | 1009.3 |
| 20260509180434 | 50 | 212 | 3.0 | 5.0 | 0.00 | 0.27 | 0.27 | 95 | 1009.3 |
| 20260509175931 | 50 | 189 | 3.0 | 5.0 | 0.00 | 0.27 | 0.27 | 96 | 1009.3 |
| 20260509175427 | 50 | 184 | 7.0 | 8.0 | 0.00 | 0.27 | 0.27 | 95 | 1009.3 |
| 20260509174923 | 50 | 217 | 3.0 | 3.0 | 0.00 | 0.27 | 0.27 | 95 | 1009.0 |
| 20260509174420 | 50 | 231 | 3.0 | 5.0 | 0.00 | 0.27 | 0.27 | 95 | 1009.3 |
| 20260509173916 | 50 | 186 | 8.0 | 10.0 | 0.00 | 0.27 | 0.27 | 95 | 1009.1 |
| 20260509173415 | 50 | 177 | 9.0 | 10.0 | 0.00 | 0.27 | 0.27 | 95 | 1009.3 |
| 20260509172912 | 50 | 166 | 6.0 | 7.0 | 0.00 | 0.27 | 0.27 | 95 | 1008.9 |
| 20260509172409 | 50 | 149 | 6.0 | 7.0 | 0.00 | 0.27 | 0.27 | 95 | 1009.0 |
| 20260509171904 | 50 | 156 | 7.0 | 8.0 | 0.00 | 0.27 | 0.27 | 95 | 1009.0 |
| 20260509171401 | 50 | 265 | 6.0 | 7.0 | 0.00 | 0.27 | 0.27 | 95 | 1009.1 |
| 20260509170857 | 50 | 194 | 8.0 | 10.0 | 0.00 | 0.27 | 0.27 | 95 | 1009.3 |
| 20260509170353 | 50 | 174 | 3.0 | 6.0 | 0.00 | 0.27 | 0.27 | 95 | 1009.3 |
| 20260509165848 | 50 | 181 | 3.0 | 5.0 | 0.00 | 0.27 | 0.27 | 95 | 1009.0 |
| 20260509165342 | 50 | 174 | 7.0 | 10.0 | 0.00 | 0.27 | 0.27 | 94 | 1009.3 |
| 20260509164838 | 50 | 205 | 7.0 | 10.0 | 0.00 | 0.27 | 0.27 | 94 | 1009.1 |
| 20260509164335 | 50 | 183 | 3.0 | 5.0 | 0.00 | 0.27 | 0.27 | 95 | 1009.3 |
| 20260509163831 | 50 | 177 | 5.0 | 7.0 | 0.00 | 0.27 | 0.27 | 95 | 1009.3 |
| 20260509163328 | 50 | 177 | 8.0 | 11.0 | 0.00 | 0.27 | 0.27 | 95 | 1009.0 |
| 20260509162828 | 50 | 180 | 3.0 | 6.0 | 0.00 | 0.27 | 0.27 | 95 | 1009.3 |
| 20260509162326 | 50 | 175 | 8.0 | 9.0 | 0.00 | 0.27 | 0.27 | 95 | 1009.5 |
| 20260509161822 | 50 | 161 | 5.0 | 7.0 | 0.00 | 0.27 | 0.27 | 95 | 1009.4 |
| 20260509161319 | 50 | 183 | 3.0 | 5.0 | 0.00 | 0.27 | 0.27 | 95 | 1009.5 |
| 20260509160814 | 50 | 192 | 4.0 | 6.0 | 0.00 | 0.27 | 0.27 | 95 | 1009.5 |
| 20260509160310 | 50 | 223 | 5.0 | 7.0 | 0.00 | 0.27 | 0.27 | 95 | 1009.4 |
| 20260509155806 | 50 | 266 | 3.0 | 5.0 | 0.00 | 0.27 | 0.27 | 95 | 1009.8 |
| 20260509155306 | 49 | 143 | 6.0 | 8.0 | 0.07 | 0.27 | 0.27 | 95 | 1009.7 |
| 20260509154759 | 49 | 192 | 9.0 | 10.0 | 0.07 | 0.27 | 0.27 | 96 | 1009.8 |
| 20260509154256 | 50 | 167 | 7.0 | 9.0 | 0.00 | 0.26 | 0.26 | 96 | 1009.5 |
| 20260509153753 | 49 | 176 | 4.0 | 5.0 | 0.00 | 0.26 | 0.26 | 96 | 1010.0 |
| 20260509153249 | 49 | 157 | 3.0 | 5.0 | 0.00 | 0.26 | 0.26 | 96 | 1009.8 |
| 20260509152745 | 49 | 180 | 10.0 | 11.0 | 0.00 | 0.26 | 0.26 | 95 | 1009.7 |
| 20260509152242 | 49 | 184 | 4.0 | 7.0 | 0.00 | 0.26 | 0.26 | 95 | 1009.9 |
| 20260509151739 | 49 | 237 | 5.0 | 9.0 | 0.00 | 0.26 | 0.26 | 95 | 1010.1 |
| 20260509151236 | 49 | 183 | 7.0 | 9.0 | 0.00 | 0.26 | 0.26 | 95 | 1010.2 |
| 20260509150734 | 49 | 145 | 6.0 | 9.0 | 0.05 | 0.26 | 0.26 | 95 | 1009.9 |
| 20260509150232 | 49 | 154 | 5.0 | 7.0 | 0.05 | 0.26 | 0.26 | 95 | 1010.2 |
| 20260509145729 | 49 | 190 | 8.0 | 9.0 | 0.00 | 0.25 | 0.25 | 96 | 1010.4 |
| 20260509145228 | 49 | 215 | 3.0 | 6.0 | 0.07 | 0.25 | 0.25 | 96 | 1010.5 |
| 20260509144725 | 48 | 165 | 4.0 | 6.0 | 0.07 | 0.25 | 0.25 | 96 | 1010.3 |
| 20260509144222 | 48 | 266 | 3.0 | 3.0 | 0.00 | 0.24 | 0.24 | 96 | 1010.5 |
| 20260509143719 | 48 | 183 | 4.0 | 7.0 | 0.00 | 0.24 | 0.24 | 96 | 1010.4 |
| 20260509143217 | 48 | 178 | 2.0 | 3.0 | 0.05 | 0.24 | 0.24 | 96 | 1010.4 |
| 20260509142712 | 48 | 142 | 6.0 | 8.0 | 0.05 | 0.24 | 0.24 | 95 | 1010.4 |
| 20260509142209 | 48 | 130 | 3.0 | 5.0 | 0.00 | 0.23 | 0.23 | 96 | 1010.4 |
| 20260509141704 | 48 | 154 | 3.0 | 6.0 | 0.00 | 0.23 | 0.23 | 95 | 1010.4 |
| 20260509141202 | 48 | 155 | 5.0 | 6.0 | 0.07 | 0.23 | 0.23 | 96 | 1010.2 |
| 20260509140658 | 48 | 179 | 3.0 | 3.0 | 0.07 | 0.23 | 0.23 | 96 | 1010.4 |
| 20260509140156 | 48 | 138 | 3.0 | 5.0 | 0.00 | 0.22 | 0.22 | 96 | 1010.4 |
| 20260509135653 | 48 | 166 | 3.0 | 3.0 | 0.07 | 0.22 | 0.22 | 96 | 1010.3 |
| 20260509135151 | 48 | 122 | 3.0 | 3.0 | 0.07 | 0.22 | 0.22 | 97 | 1010.5 |
| 20260509134647 | 48 | 128 | 5.0 | 6.0 | 0.00 | 0.21 | 0.21 | 96 | 1010.2 |
| 20260509134145 | 48 | 161 | 5.0 | 6.0 | 0.00 | 0.21 | 0.21 | 96 | 1010.3 |
| 20260509133642 | 48 | 151 | 4.0 | 6.0 | 0.05 | 0.21 | 0.21 | 97 | 1010.4 |
| 20260509133139 | 48 | 163 | 4.0 | 5.0 | 0.05 | 0.21 | 0.21 | 97 | 1010.4 |
| 20260509132637 | 48 | 330 | 1.0 | 1.0 | 0.00 | 0.20 | 0.20 | 97 | 1010.4 |
| 20260509132136 | 47 | 144 | 4.0 | 5.0 | 0.07 | 0.20 | 0.20 | 97 | 1010.4 |
| 20260509131631 | 47 | 135 | 4.0 | 6.0 | 0.12 | 0.20 | 0.20 | 97 | 1010.6 |
| 20260509131129 | 47 | 18 | 0.0 | 1.0 | 0.05 | 0.19 | 0.19 | 97 | 1010.4 |
| 20260509130624 | 47 | 297 | 2.0 | 3.0 | 0.05 | 0.19 | 0.19 | 97 | 1010.5 |
| 20260509130121 | 47 | 206 | 2.0 | 3.0 | 0.07 | 0.18 | 0.18 | 97 | 1010.7 |
| 20260509125617 | 47 | 248 | 1.0 | 1.0 | 0.12 | 0.18 | 0.18 | 97 | 1010.6 |
| 20260509125114 | 47 | 170 | 5.0 | 6.0 | 0.05 | 0.17 | 0.17 | 97 | 1010.6 |
| 20260509124611 | 47 | 281 | 1.0 | 1.0 | 0.00 | 0.16 | 0.16 | 97 | 1010.8 |
| 20260509124108 | 47 | 259 | 1.0 | 1.0 | 0.00 | 0.16 | 0.16 | 97 | 1010.5 |
| 20260509123606 | 47 | 275 | 2.0 | 2.0 | 0.07 | 0.16 | 0.16 | 97 | 1010.7 |
| 20260509123102 | 47 | 263 | 3.0 | 3.0 | 0.07 | 0.16 | 0.16 | 97 | 1010.8 |
| 20260509122558 | 47 | 218 | 1.0 | 2.0 | 0.00 | 0.15 | 0.15 | 97 | 1010.7 |
| 20260509122055 | 47 | 163 | 2.0 | 3.0 | 0.05 | 0.15 | 0.15 | 98 | 1010.6 |
| 20260509121551 | 47 | 218 | 3.0 | 3.0 | 0.05 | 0.15 | 0.15 | 98 | 1010.6 |
| 20260509121049 | 47 | 154 | 5.0 | 5.0 | 0.00 | 0.14 | 0.14 | 98 | 1010.9 |
| 20260509120548 | 46 | 198 | 3.0 | 3.0 | 0.07 | 0.14 | 0.14 | 98 | 1010.7 |
| 20260509120046 | 46 | 137 | 2.0 | 3.0 | 0.07 | 0.14 | 0.14 | 97 | 1010.9 |
| 20260509115542 | 46 | 221 | 2.0 | 2.0 | 0.05 | 0.13 | 0.13 | 97 | 1010.8 |
| 20260509115040 | 46 | 316 | 0.0 | 1.0 | 0.05 | 0.13 | 0.13 | 97 | 1011.0 |
| 20260509114538 | 46 | 260 | 2.0 | 2.0 | 0.00 | 0.12 | 0.12 | 97 | 1011.0 |
| 20260509114037 | 46 | 236 | 4.0 | 6.0 | 0.00 | 0.12 | 0.12 | 97 | 1010.8 |
| 20260509113535 | 46 | 162 | 2.0 | 2.0 | 0.07 | 0.12 | 0.12 | 97 | 1010.7 |
| 20260509113032 | 46 | 246 | 3.0 | 5.0 | 0.07 | 0.12 | 0.12 | 97 | 1010.7 |
| 20260509112528 | 46 | 179 | 7.0 | 9.0 | 0.05 | 0.11 | 0.11 | 98 | 1010.6 |
| 20260509112025 | 46 | 302 | 1.0 | 2.0 | 0.05 | 0.11 | 0.11 | 98 | 1010.7 |
| 20260509111522 | 46 | 201 | 3.0 | 3.0 | 0.07 | 0.10 | 0.10 | 98 | 1010.8 |
| 20260509111020 | 46 | 162 | 4.0 | 5.0 | 0.14 | 0.10 | 0.10 | 98 | 1011.0 |
| 20260509110516 | 46 | 196 | 2.0 | 3.0 | 0.07 | 0.09 | 0.09 | 97 | 1010.8 |
| 20260509110013 | 46 | 174 | 5.0 | 6.0 | 0.05 | 0.08 | 0.08 | 97 | 1010.8 |
| 20260509105512 | 46 | 149 | 4.0 | 5.0 | 0.05 | 0.08 | 0.08 | 97 | 1010.6 |
| 20260509105009 | 46 | 323 | 1.0 | 2.0 | 0.07 | 0.07 | 0.07 | 97 | 1010.7 |
| 20260509104506 | 46 | 275 | 3.0 | 3.0 | 0.12 | 0.07 | 0.07 | 97 | 1010.8 |
| 20260509104003 | 46 | 307 | 2.0 | 3.0 | 0.05 | 0.06 | 0.06 | 97 | 1010.8 |
| 20260509103500 | 46 | 253 | 1.0 | 2.0 | 0.07 | 0.05 | 0.05 | 97 | 1011.0 |
| 20260509102958 | 46 | 303 | 1.0 | 1.0 | 0.07 | 0.05 | 0.05 | 97 | 1010.9 |
| 20260509102455 | 46 | 306 | 1.0 | 1.0 | 0.05 | 0.04 | 0.04 | 97 | 1010.8 |
| 20260509101952 | 46 | 118 | 1.0 | 2.0 | 0.05 | 0.04 | 0.04 | 97 | 1010.5 |
| 20260509101448 | 46 | 187 | 3.0 | 3.0 | 0.00 | 0.03 | 0.03 | 97 | 1010.5 |
| 20260509100945 | 46 | 153 | 1.0 | 1.0 | 0.00 | 0.03 | 0.03 | 97 | 1010.7 |
| 20260509100442 | 46 | 290 | 2.0 | 2.0 | 0.00 | 0.03 | 0.03 | 97 | 1010.7 |
| 20260509095939 | 46 | 289 | 1.0 | 1.0 | 0.00 | 0.03 | 0.03 | 97 | 1010.6 |
| 20260509095436 | 46 | 159 | 4.0 | 5.0 | 0.00 | 0.03 | 0.03 | 97 | 1010.2 |
| 20260509094933 | 46 | 192 | 2.0 | 3.0 | 0.00 | 0.03 | 0.03 | 97 | 1010.5 |
| 20260509094429 | 46 | 209 | 2.0 | 2.0 | 0.00 | 0.03 | 0.03 | 97 | 1010.2 |
| 20260509093927 | 46 | 309 | 1.0 | 1.0 | 0.00 | 0.03 | 0.03 | 97 | 1010.5 |
| 20260509093425 | 46 | 301 | 1.0 | 1.0 | 0.00 | 0.03 | 0.03 | 97 | 1010.6 |
| 20260509092923 | 46 | 280 | 0.0 | 1.0 | 0.00 | 0.03 | 0.03 | 97 | 1010.5 |
| 20260509092420 | 46 | 311 | 0.0 | 1.0 | 0.00 | 0.03 | 0.03 | 97 | 1010.2 |
| 20260509091919 | 46 | 313 | 0.0 | 0.0 | 0.07 | 0.03 | 0.03 | 97 | 1010.5 |
| 20260509091415 | 46 | 309 | 0.0 | 1.0 | 0.07 | 0.03 | 0.03 | 97 | 1010.7 |
| 20260509090912 | 46 | 240 | 1.0 | 2.0 | 0.00 | 0.02 | 0.02 | 97 | 1010.6 |
| 20260509090409 | 46 | 242 | 1.0 | 1.0 | 0.00 | 0.02 | 0.02 | 97 | 1010.7 |
| 20260509085907 | 46 | 203 | 3.0 | 3.0 | 0.00 | 0.02 | 0.02 | 97 | 1010.7 |
| 20260509085404 | 46 | 197 | 2.0 | 2.0 | 0.00 | 0.02 | 0.02 | 96 | 1010.6 |
| 20260509084900 | 46 | 242 | 3.0 | 3.0 | 0.00 | 0.02 | 0.02 | 96 | 1010.7 |
| 20260509084357 | 46 | 179 | 4.0 | 5.0 | 0.00 | 0.02 | 0.02 | 96 | 1010.8 |
| 20260509083855 | 46 | 142 | 4.0 | 5.0 | 0.00 | 0.02 | 0.02 | 96 | 1010.8 |
| 20260509083351 | 46 | 299 | 2.0 | 2.0 | 0.00 | 0.02 | 0.02 | 96 | 1010.9 |
| 20260509082848 | 46 | 229 | 2.0 | 2.0 | 0.00 | 0.02 | 0.02 | 96 | 1011.0 |
| 20260509082345 | 46 | 186 | 3.0 | 3.0 | 0.00 | 0.02 | 0.02 | 96 | 1011.0 |
| 20260509081842 | 46 | 242 | 1.0 | 1.0 | 0.05 | 0.02 | 0.02 | 96 | 1011.1 |
| 20260509081339 | 46 | 292 | 2.0 | 3.0 | 0.05 | 0.02 | 0.02 | 96 | 1011.1 |
| 20260509080837 | 46 | 273 | 1.0 | 1.0 | 0.05 | 0.02 | 0.02 | 96 | 1011.2 |
| 20260509080335 | 46 | 271 | 1.0 | 1.0 | 0.00 | 0.01 | 0.01 | 96 | 1011.2 |
| 20260509075833 | 45 | 288 | 0.0 | 1.0 | 0.00 | 0.01 | 0.01 | 95 | 1011.2 |
| 20260509075330 | 45 | 283 | 1.0 | 1.0 | 0.00 | 0.01 | 0.01 | 95 | 1011.2 |
| 20260509074827 | 45 | 297 | 0.0 | 1.0 | 0.00 | 0.01 | 0.01 | 95 | 1011.2 |
| 20260509074325 | 45 | 305 | 1.0 | 1.0 | 0.00 | 0.01 | 0.01 | 95 | 1011.0 |
| 20260509073820 | 45 | 292 | 1.0 | 1.0 | 0.00 | 0.01 | 0.01 | 94 | 1011.2 |
| 20260509073317 | 45 | 209 | 2.0 | 2.0 | 0.00 | 0.01 | 0.01 | 94 | 1010.9 |
| 20260509072814 | 45 | 242 | 1.0 | 2.0 | 0.00 | 0.01 | 0.01 | 94 | 1011.1 |
| 20260509072310 | 45 | 289 | 1.0 | 1.0 | 0.00 | 0.01 | 0.01 | 94 | 1011.1 |
| 20260509071807 | 45 | 310 | 0.0 | 0.0 | 0.00 | 0.01 | 0.01 | 93 | 1011.3 |
| 20260509071304 | 45 | 318 | 0.0 | 0.0 | 0.00 | 0.01 | 0.01 | 93 | 1010.9 |
| 20260509070801 | 45 | 325 | 0.0 | 0.0 | 0.00 | 0.01 | 0.01 | 93 | 1010.9 |
| 20260509070258 | 44 | 324 | 0.0 | 0.0 | 0.00 | 0.01 | 0.01 | 92 | 1010.8 |
| 20260509065754 | 44 | 327 | 0.0 | 0.0 | 0.00 | 0.01 | 0.01 | 92 | 1010.9 |
| 20260509065250 | 44 | 320 | 0.0 | 0.0 | 0.07 | 0.01 | 0.01 | 92 | 1010.9 |
| 20260509064747 | 44 | 326 | 0.0 | 0.0 | 0.07 | 0.01 | 0.01 | 91 | 1011.1 |
| 20260509064244 | 44 | 310 | 0.0 | 0.0 | 0.00 | 0.00 | 0.00 | 91 | 1011.1 |
| 20260509063741 | 44 | 327 | 0.0 | 0.0 | 0.00 | 0.00 | 0.00 | 90 | 1011.0 |
| 20260509063238 | 44 | 324 | 0.0 | 0.0 | 0.00 | 0.00 | 0.00 | 89 | 1011.3 |
| 20260509062735 | 44 | 332 | 0.0 | 0.0 | 0.00 | 0.00 | 0.00 | 88 | 1011.2 |
| 20260509062232 | 44 | 332 | 0.0 | 0.0 | 0.00 | 0.00 | 0.00 | 86 | 1011.5 |
| 20260509061729 | 44 | 310 | 0.0 | 0.0 | 0.00 | 0.00 | 0.00 | 85 | 1011.4 |
| 20260509061227 | 45 | 315 | 0.0 | 1.0 | 0.00 | 0.00 | 0.00 | 82 | 1011.6 |
| 20260509060724 | 45 | 315 | 0.0 | 1.0 | 0.00 | 0.00 | 0.00 | 81 | 1011.6 |
| 20260509060220 | 45 | 314 | 0.0 | 1.0 | 0.00 | 0.00 | 0.00 | 80 | 1011.7 |
| 20260509055716 | 45 | 287 | 0.0 | 1.0 | 0.00 | 0.00 | 0.00 | 81 | 1011.7 |
| 20260509055212 | 46 | 302 | 0.0 | 0.0 | 0.00 | 0.00 | 0.00 | 78 | 1011.7 |
| 20260509054709 | 46 | 220 | 1.0 | 1.0 | 0.00 | 0.00 | 0.00 | 76 | 1011.7 |
| 20260509054206 | 46 | 327 | 0.0 | 0.0 | 0.00 | 0.00 | 0.00 | 78 | 1011.7 |
| 20260509053705 | 46 | 328 | 1.0 | 1.0 | 0.00 | 0.00 | 0.00 | 76 | 1011.9 |
| 20260509053201 | 46 | 299 | 1.0 | 1.0 | 0.00 | 0.00 | 0.00 | 76 | 1011.6 |
| 20260509052659 | 46 | 322 | 0.0 | 0.0 | 0.00 | 0.00 | 0.00 | 75 | 1011.6 |
| 20260509052156 | 46 | 317 | 0.0 | 0.0 | 0.00 | 0.00 | 0.00 | 75 | 1011.6 |
| 20260509051654 | 46 | 325 | 0.0 | 0.0 | 0.00 | 0.00 | 0.00 | 75 | 1011.5 |
| 20260509051151 | 46 | 350 | 0.0 | 1.0 | 0.00 | 0.00 | 0.00 | 74 | 1011.5 |
| 20260509050648 | 47 | 312 | 0.0 | 0.0 | 0.00 | 0.00 | 0.00 | 73 | 1011.5 |
| 20260509050144 | 46 | 327 | 0.0 | 1.0 | 0.00 | 0.00 | 0.00 | 73 | 1011.7 |
| 20260509045642 | 46 | 319 | 1.0 | 1.0 | 0.00 | 0.00 | 0.00 | 73 | 1011.9 |
| 20260509045139 | 46 | 325 | 1.0 | 1.0 | 0.00 | 0.00 | 0.00 | 74 | 1011.7 |
| 20260509044636 | 46 | 317 | 0.0 | 1.0 | 0.00 | 0.00 | 0.00 | 74 | 1011.7 |
| 20260509044133 | 46 | 335 | 0.0 | 0.0 | 0.00 | 0.00 | 0.00 | 69 | 1011.7 |
| 20260509043630 | 46 | 330 | 0.0 | 0.0 | 0.00 | 0.00 | 0.00 | 69 | 1012.0 |
| 20260509043125 | 46 | 346 | 0.0 | 0.0 | 0.00 | 0.00 | 0.00 | 68 | 1012.0 |
| 20260509042622 | 46 | 339 | 0.0 | 0.0 | 0.00 | 0.00 | 0.00 | 66 | 1012.1 |
| 20260509042118 | 45 | 341 | 0.0 | 0.0 | 0.00 | 0.00 | 0.00 | 66 | 1012.1 |
| 20260509041615 | 45 | 328 | 0.0 | 0.0 | 0.00 | 0.00 | 0.00 | 70 | 1012.2 |
| 20260509041112 | 45 | 328 | 0.0 | 0.0 | 0.00 | 0.00 | 0.00 | 68 | 1012.1 |
| 20260509040611 | 45 | 324 | 0.0 | 0.0 | 0.00 | 0.00 | 0.00 | 66 | 1012.2 |
| 20260509040107 | 45 | 332 | 0.0 | 0.0 | 0.00 | 0.01 | 0.01 | 66 | 1012.1 |
| 20260509035604 | 44 | 341 | 0.0 | 0.0 | 0.00 | 0.01 | 0.01 | 67 | 1012.2 |
| 20260509035100 | 44 | 336 | 0.0 | 0.0 | 0.00 | 0.01 | 0.01 | 68 | 1012.2 |
| 20260509034559 | 44 | 334 | 0.0 | 0.0 | 0.00 | 0.01 | 0.01 | 69 | 1011.9 |
| 20260509034055 | 44 | 328 | 0.0 | 0.0 | 0.00 | 0.01 | 0.01 | 69 | 1012.0 |
| 20260509033553 | 44 | 346 | 0.0 | 0.0 | 0.00 | 0.01 | 0.01 | 68 | 1012.0 |
| 20260509033049 | 44 | 357 | 0.0 | 0.0 | 0.00 | 0.01 | 0.01 | 68 | 1012.1 |
| 20260509032547 | 44 | 348 | 0.0 | 0.0 | 0.00 | 0.01 | 0.01 | 69 | 1011.9 |
| 20260509032044 | 44 | 342 | 0.0 | 0.0 | 0.00 | 0.01 | 0.01 | 68 | 1012.0 |
| 20260509031541 | 43 | 331 | 0.0 | 0.0 | 0.00 | 0.01 | 0.01 | 70 | 1012.1 |
| 20260509031038 | 43 | 335 | 0.0 | 0.0 | 0.00 | 0.01 | 0.01 | 71 | 1012.3 |
| 20260509030537 | 43 | 335 | 0.0 | 0.0 | 0.00 | 0.01 | 0.01 | 72 | 1012.3 |
| 20260509030033 | 44 | 358 | 0.0 | 0.0 | 0.00 | 0.01 | 0.01 | 72 | 1012.4 |
| 20260509025529 | 44 | 357 | 0.0 | 1.0 | 0.00 | 0.01 | 0.01 | 69 | 1012.3 |
| 20260509025025 | 44 | 355 | 1.0 | 1.0 | 0.00 | 0.01 | 0.01 | 69 | 1012.3 |
| 20260509024521 | 44 | 1 | 1.0 | 1.0 | 0.00 | 0.01 | 0.01 | 69 | 1012.3 |
| 20260509024017 | 44 | 342 | 0.0 | 0.0 | 0.00 | 0.01 | 0.01 | 69 | 1012.4 |
| 20260509023515 | 44 | 357 | 0.0 | 1.0 | 0.00 | 0.01 | 0.01 | 70 | 1012.1 |
| 20260509023012 | 44 | 357 | 1.0 | 1.0 | 0.00 | 0.01 | 0.01 | 70 | 1012.4 |
| 20260509022508 | 44 | 4 | 1.0 | 1.0 | 0.00 | 0.01 | 0.01 | 72 | 1012.3 |
| 20260509022006 | 44 | 359 | 1.0 | 1.0 | 0.00 | 0.01 | 0.01 | 72 | 1012.1 |
| 20260509021503 | 44 | 1 | 1.0 | 1.0 | 0.00 | 0.01 | 0.01 | 72 | 1012.4 |
| 20260509021000 | 44 | 17 | 1.0 | 1.0 | 0.00 | 0.01 | 0.01 | 71 | 1012.4 |
| 20260509020458 | 44 | 9 | 1.0 | 1.0 | 0.00 | 0.01 | 0.01 | 70 | 1012.3 |
| 20260509015954 | 44 | 353 | 0.0 | 0.0 | 0.00 | 0.01 | 0.01 | 73 | 1012.4 |
| 20260509015453 | 44 | 352 | 0.0 | 0.0 | 0.00 | 0.01 | 0.01 | 71 | 1012.3 |
| 20260509014950 | 44 | 352 | 0.0 | 0.0 | 0.00 | 0.01 | 0.01 | 73 | 1012.1 |
| 20260509014447 | 44 | 352 | 0.0 | 0.0 | 0.00 | 0.01 | 0.01 | 73 | 1012.4 |
| 20260509013943 | 45 | 352 | 0.0 | 0.0 | 0.00 | 0.01 | 0.01 | 73 | 1012.1 |
| 20260509013440 | 45 | 352 | 0.0 | 0.0 | 0.00 | 0.01 | 0.01 | 72 | 1012.4 |
| 20260509012936 | 46 | 352 | 0.0 | 0.0 | 0.00 | 0.01 | 0.01 | 69 | 1012.2 |
| 20260509012432 | 46 | 351 | 0.0 | 0.0 | 0.00 | 0.01 | 0.01 | 67 | 1012.4 |
| 20260509011930 | 46 | 351 | 0.0 | 0.0 | 0.00 | 0.01 | 0.01 | 68 | 1012.2 |
| 20260509011427 | 46 | 351 | 0.0 | 0.0 | 0.00 | 0.01 | 0.01 | 69 | 1012.2 |
| 20260509010925 | 46 | 351 | 0.0 | 0.0 | 0.00 | 0.01 | 0.01 | 68 | 1012.1 |
| 20260509010422 | 47 | 351 | 0.0 | 0.0 | 0.00 | 0.01 | 0.01 | 68 | 1011.7 |
| 20260509005919 | 47 | 351 | 0.0 | 0.0 | 0.00 | 0.01 | 0.01 | 67 | 1011.7 |
| 20260509005417 | 47 | 352 | 0.0 | 0.0 | 0.00 | 0.01 | 0.01 | 66 | 1011.5 |
| 20260509004917 | 47 | 352 | 0.0 | 0.0 | 0.00 | 0.01 | 0.01 | 66 | 1011.4 |
| 20260509004414 | 47 | 351 | 0.0 | 0.0 | 0.00 | 0.01 | 0.01 | 63 | 1011.5 |
| 20260509003911 | 48 | 351 | 0.0 | 0.0 | 0.00 | 0.01 | 0.01 | 65 | 1011.4 |
| 20260509003409 | 48 | 351 | 0.0 | 0.0 | 0.00 | 0.01 | 0.01 | 62 | 1011.4 |
| 20260509002905 | 48 | 351 | 0.0 | 0.0 | 0.00 | 0.01 | 0.01 | 64 | 1011.6 |
| 20260509002404 | 48 | 351 | 0.0 | 0.0 | 0.00 | 0.01 | 0.01 | 62 | 1011.4 |
| 20260509001901 | 49 | 351 | 0.0 | 0.0 | 0.00 | 0.01 | 0.01 | 60 | 1011.3 |
| 20260509001356 | 49 | 351 | 0.0 | 0.0 | 0.00 | 0.01 | 0.01 | 60 | 1011.0 |
| 20260509000854 | 49 | 350 | 0.0 | 0.0 | 0.00 | 0.01 | 0.01 | 59 | 1011.1 |
| 20260509000352 | 49 | 343 | 0.0 | 0.0 | 0.00 | 0.01 | 0.01 | 57 | 1011.2 |
| 20260508235848 | 49 | 344 | 0.0 | 0.0 | 0.00 | 0.01 | 0.01 | 58 | 1011.1 |
| 20260508235345 | 50 | 343 | 0.0 | 0.0 | 0.00 | 0.01 | 0.01 | 58 | 1011.1 |
| 20260508234842 | 50 | 337 | 0.0 | 0.0 | 0.00 | 0.01 | 0.01 | 56 | 1011.1 |
| 20260508234338 | 50 | 336 | 0.0 | 0.0 | 0.00 | 0.01 | 0.01 | 56 | 1010.9 |
| 20260508233837 | 50 | 335 | 0.0 | 0.0 | 0.00 | 0.01 | 0.01 | 56 | 1010.9 |
| 20260508233336 | 50 | 345 | 0.0 | 0.0 | 0.00 | 0.01 | 0.01 | 55 | 1010.7 |
| 20260508232832 | 51 | 347 | 0.0 | 0.0 | 0.00 | 0.01 | 0.01 | 55 | 1010.8 |
| 20260508232329 | 51 | 351 | 0.0 | 0.0 | 0.00 | 0.01 | 0.01 | 53 | 1010.8 |
| 20260508231827 | 51 | 339 | 0.0 | 0.0 | 0.00 | 0.01 | 0.01 | 58 | 1010.9 |
| 20260508231323 | 51 | 337 | 0.0 | 0.0 | 0.00 | 0.01 | 0.01 | 56 | 1010.8 |
| 20260508230820 | 51 | 334 | 0.0 | 0.0 | 0.00 | 0.01 | 0.01 | 54 | 1010.8 |
| 20260508230316 | 51 | 340 | 0.0 | 0.0 | 0.00 | 0.01 | 0.01 | 52 | 1010.7 |
| 20260508225814 | 51 | 339 | 0.0 | 0.0 | 0.00 | 0.01 | 0.01 | 50 | 1010.8 |
| 20260508225310 | 52 | 330 | 1.0 | 1.0 | 0.00 | 0.01 | 0.01 | 51 | 1010.7 |
| 20260508224809 | 52 | 340 | 0.0 | 0.0 | 0.00 | 0.01 | 0.01 | 48 | 1010.9 |
| 20260508224306 | 53 | 309 | 1.0 | 2.0 | 0.00 | 0.01 | 0.01 | 49 | 1010.8 |
| 20260508223803 | 53 | 334 | 0.0 | 0.0 | 0.00 | 0.01 | 0.01 | 48 | 1010.8 |
| 20260508223301 | 53 | 6 | 1.0 | 1.0 | 0.00 | 0.01 | 0.01 | 48 | 1011.0 |
| 20260508222758 | 52 | 335 | 0.0 | 0.0 | 0.00 | 0.01 | 0.01 | 51 | 1011.0 |
| 20260508222255 | 52 | 316 | 0.0 | 1.0 | 0.00 | 0.01 | 0.01 | 48 | 1011.0 |
| 20260508221751 | 52 | 223 | 1.0 | 2.0 | 0.00 | 0.01 | 0.01 | 48 | 1010.9 |
| 20260508221247 | 52 | 7 | 0.0 | 1.0 | 0.00 | 0.01 | 0.01 | 48 | 1010.9 |
| 20260508220743 | 53 | 309 | 1.0 | 2.0 | 0.00 | 0.01 | 0.01 | 47 | 1010.9 |
| 20260508220240 | 54 | 284 | 1.0 | 1.0 | 0.00 | 0.01 | 0.01 | 46 | 1010.8 |
| 20260508215736 | 55 | 344 | 3.0 | 5.0 | 0.00 | 0.01 | 0.01 | 45 | 1010.9 |
| 20260508215233 | 54 | 340 | 1.0 | 2.0 | 0.00 | 0.01 | 0.01 | 48 | 1011.0 |
| 20260508214730 | 53 | 353 | 0.0 | 1.0 | 0.00 | 0.01 | 0.01 | 47 | 1011.1 |
| 20260508214228 | 54 | 10 | 0.0 | 1.0 | 0.00 | 0.01 | 0.01 | 47 | 1011.1 |
| 20260508213724 | 53 | 295 | 2.0 | 2.0 | 0.00 | 0.01 | 0.01 | 47 | 1011.0 |
| 20260508213221 | 52 | 300 | 0.0 | 1.0 | 0.00 | 0.01 | 0.01 | 46 | 1011.2 |